CST,Max TemperatureF,Mean TemperatureF,Min TemperatureF,Max Dew PointF,MeanDew PointF,Min DewpointF,Max Humidity, Mean Humidity, Min Humidity, Max Sea Level PressureIn, Mean Sea Level PressureIn, Min Sea Level PressureIn, Max VisibilityMiles, Mean VisibilityMiles, Min VisibilityMiles, Max Wind SpeedMPH, Mean Wind SpeedMPH, Max Gust SpeedMPH,PrecipitationIn, CloudCover, Events, WindDirDegrees
2013-1-1,46,40,33,34,28,23,92,69,45,30.24,30.14,29.99,10,9,4,14,7,17,0.00,4,,5
2013-1-2,50,36,22,25,22,20,84,60,36,30.29,30.23,30.15,10,10,7,12,4,16,0.00,0,,82
2013-1-3,34,32,30,30,26,22,96,77,52,30.45,30.37,30.26,10,7,1,14,8,,0.01,7,Snow,67
2013-1-4,35,32,30,30,29,28,96,88,71,30.44,30.38,30.29,10,8,2,12,6,,0.03,8,Snow,160
2013-1-5,54,40,26,30,28,24,100,78,32,30.38,30.26,30.17,10,7,0,14,8,17,0.00,4,Fog,237
2013-1-6,55,39,22,23,22,19,84,56,28,30.48,30.35,30.25,10,10,10,10,6,,0.00,0,,69
2013-1-7,52,41,30,27,26,25,78,57,35,30.23,30.09,29.98,10,10,10,21,10,25,0.00,0,,138
2013-1-8,49,40,31,45,40,32,100,91,82,30.07,29.97,29.92,10,5,0,12,5,18,0.03,7,Fog-Rain,48
2013-1-9,45,43,40,45,41,39,100,95,89,30.19,30.05,29.93,10,5,1,31,18,38,1.34,8,Rain,23
2013-1-10,57,49,41,43,41,37,100,76,51,30.03,29.95,29.85,10,9,3,23,11,26,0.03,4,Rain,265
2013-1-11,64,55,45,41,39,35,82,58,34,29.83,29.75,29.66,10,10,10,23,12,29,0.00,0,,202
2013-1-12,52,42,31,36,25,19,76,52,28,30.00,29.84,29.77,10,10,10,17,10,22,0.00,0,,6
2013-1-13,38,31,23,24,21,18,81,67,52,30.21,30.13,30.01,10,10,10,18,10,22,0.00,0,,54
2013-1-14,38,30,22,16,14,12,68,53,37,30.25,30.18,30.10,10,10,10,18,12,22,0.00,2,,64
2013-1-15,39,30,21,20,17,13,81,63,44,30.27,30.21,30.15,10,10,10,14,7,18,0.00,3,,353
2013-1-16,54,38,21,28,21,13,88,60,31,30.33,30.27,30.20,10,10,10,24,10,36,0.00,0,,301
2013-1-17,59,45,30,29,27,24,78,54,30,30.52,30.43,30.35,10,10,10,12,6,14,0.00,0,,29
2013-1-18,60,45,30,31,28,26,85,58,31,30.43,30.29,30.15,10,10,10,21,9,26,0.00,0,,176
2013-1-19,68,51,33,31,27,21,82,50,17,30.20,30.14,30.06,10,10,10,14,6,17,0.00,0,,252
2013-1-20,64,47,29,28,25,21,78,49,20,30.23,30.14,30.04,10,10,10,14,5,16,0.00,0,,291
2013-1-21,51,40,29,29,27,23,78,59,39,30.29,30.20,30.09,10,10,10,16,7,21,0.00,0,,26
2013-1-22,65,48,31,46,35,27,86,60,34,30.26,30.17,30.09,10,10,10,14,6,17,0.00,4,,185
2013-1-23,74,58,42,48,40,22,100,57,14,30.28,30.17,30.09,10,5,0,15,7,17,0.00,0,Fog,209
2013-1-24,77,59,41,47,40,33,93,58,23,30.16,30.08,30.00,10,10,6,21,9,25,0.00,0,,227
2013-1-25,66,56,45,40,36,33,66,49,31,30.11,30.06,30.01,10,10,10,18,7,24,T,1,,355
2013-1-26,73,58,42,57,44,36,84,63,41,30.10,30.00,29.90,10,10,10,22,10,23,0.00,1,,136
2013-1-27,75,64,53,57,48,44,90,62,33,29.97,29.87,29.81,10,10,10,22,11,28,T,1,,221
2013-1-28,77,61,45,57,46,29,100,59,18,29.95,29.80,29.64,10,9,3,23,11,28,0.00,1,,209
2013-1-29,63,52,40,57,29,12,86,56,25,29.85,29.71,29.61,10,9,4,43,22,55,0.00,3,,264
2013-1-30,51,39,27,24,14,5,78,47,15,30.17,30.09,29.87,10,10,10,31,13,40,0.00,0,,282
2013-1-31,63,46,28,22,17,9,47,33,19,30.20,30.15,30.09,10,10,10,22,9,30,0.00,0,,248